Tracking 30510 objects as of 22-May-2025
HD Live streaming from Space Station
objects crossing your sky now

CZ-3A DEB

Track CZ-3A DEB now!


NORAD ID: 40813
Int'l Code: 2007-003AS
Perigee: 712.7 km
Apogee: 45,441.0 km
Inclination: 26.1 °
Period: 838.2 minutes
Semi major axis: 29447 km
RCS: Unknown
Launch date: February 2, 2007
Source: People's Republic of China (PRC)
Launch site: Xichang Space Center, China (XSC)

Note: This is SATELLITE DEBRIS
Your satellite tracking list
Your tracking list is empty




NASA's NSSDC Master Catalog

Two Line Element Set (TLE):
1 40813U 07003AS  25141.22903402 -.00000090  00000-0 -21238-2 0  9990
2 40813  26.0714 159.1780 7594480  28.9391 357.5175  1.71799524 77718
Source of the keplerian elements: AFSPC